This demonstration page uses our WeatherBlox Daily Observations layout. Learn more.

Left ArrowRight Arrow

47.50024, -111.30081

Hourly Observations for April 4, 2019

Temp ( °F °C ) Dew Point ( °F °C ) Humidity (%) Winds ( mph kmh ) Pressure ( in mb ) Visibility ( mi km ) Precip ( " mm )
12:53 am 00:53 Partly Cloudy 47 8.3 34 1.1 61 61 SW 18 30 29.83 1010 10 16 0.00 0.00
1:53 am 01:53 Clear 46 7.8 34 1.1 63 63 SW 18 30 29.84 1011 10 16 0.00 0.00
2:53 am 02:53 Clear 45 7.2 34 1.1 66 66 SW 16 26 29.85 1011 10 16 0.00 0.00
3:53 am 03:53 Mostly Cloudy 44 6.7 34 1.1 68 68 SW 12 19 29.86 1011 10 16 0.00 0.00
4:53 am 04:53 Clear 45 7.2 34 1.1 66 66 SW 15 24 29.86 1011 10 16 0.00 0.00
5:53 am 05:53 Clear 44 6.7 34 1.1 68 68 SW 16 26 29.87 1012 10 16 0.00 0.00
6:53 am 06:53 Clear 42 5.6 33 0.6 71 71 SSW 10 17 29.88 1012 10 16 0.00 0.00
7:53 am 07:53 Sunny 45 7.2 33 0.6 63 63 SW 15 24 29.89 1012 10 16 0.00 0.00
8:53 am 08:53 Sunny 49 9.4 33 0.6 55 55 SW 18 30 29.89 1012 10 16 0.00 0.00
9:53 am 09:53 Sunny 53 11.7 32 0 45 45 SW 22 35 29.88 1012 10 16 0.00 0.00
10:53 am 10:53 Sunny 56 13.3 31 -0.6 39 39 SW 22 35 29.87 1012 10 16 0.00 0.00
11:53 am 11:53 Sunny 56 13.3 29 -1.7 36 36 SW 21 33 29.88 1012 10 16 0.00 0.00
12:53 pm 12:53 Partly Cloudy 60 15.6 31 -0.6 33 33 SW 18 30 29.86 1011 10 16 0.00 0.00
1:53 pm 13:53 Partly Cloudy 59 15 30 -1.1 33 33 WSW 20 31 29.86 1011 10 16 0.00 0.00
2:53 pm 14:53 Sunny 57 13.9 29 -1.7 34 34 SW 13 20 29.86 1011 10 16 0.00 0.00
3:53 pm 15:53 Partly Cloudy 58 14.4 29 -1.7 33 33 WSW 13 20 29.86 1011 10 16 0.00 0.00
4:53 pm 16:53 Partly Cloudy 58 14.4 29 -1.7 33 33 SW 15 24 29.84 1011 10 16 0.00 0.00
5:53 pm 17:53 Mostly Cloudy 56 13.3 31 -0.6 39 39 SW 15 24 29.85 1011 10 16 0.00 0.00
6:53 pm 18:53 Cloudy 55 12.8 32 0 42 42 SW 13 20 29.86 1011 10 16 0.00 0.00
7:53 pm 19:53 Cloudy 52 11.1 33 0.6 49 49 SW 8 13 29.86 1011 10 16 0.00 0.00
8:53 pm 20:53 Cloudy 51 10.6 33 0.6 50 50 WSW 12 19 29.87 1011 10 16 0.00 0.00
9:53 pm 21:53 Cloudy 49 9.4 35 1.7 59 59 WSW 9 15 29.88 1012 10 16 0.00 0.00
10:53 pm 22:53 Mostly Cloudy 45 7.2 36 2.2 71 71 W 6 9 29.88 1012 10 16 0.00 0.00
11:53 pm 23:53 Cloudy 45 7.2 36 2.2 71 71 WNW 5 7 29.88 1012 10 16 0.00 0.00

Powered by AerisWeather